This demonstration page uses our WeatherBlox Daily Observations layout. Learn more.

41.55636, -103.73856

Hourly Observations for March 27, 2015

Temp ( °F °C ) Dew Point ( °F °C ) Humidity (%) Winds ( mph kmh ) Pressure ( in mb ) Visibility ( mi km ) Precip ( " mm )
12:53 am 00:53 Cloudy 40 4.4 32 0 73 73 E 7 11 30.14 1021 10 16.0934 0 0.0254
1:53 am 01:53 Cloudy with Light Rain 40 4.4 32 0 73 73 E 9 15 30.14 1021 10 16.0934 0 0.0254
2:53 am 02:53 Cloudy with Light Rain 39 3.9 32 0 76 76 E 13 20 30.15 1021 10 16.0934 0 0.0254
3:53 am 03:53 Cloudy 37 2.8 34 1.1 89 89 ESE 12 19 30.14 1021 10 16.0934 0 0.0254
4:53 am 04:53 Mostly Cloudy with Light Rain 37 2.8 35 1.7 93 93 SE 8 13 30.15 1021 8 12.87472 0.01 0.254
5:53 am 05:53 Cloudy with Light Rain 37 2.8 36 2.2 96 96 E 5 7 30.13 1020 10 16.0934 0 0.0254
6:53 am 06:53 Cloudy 38 3.3 36 2.2 93 93 N 5 7 30.14 1021 10 16.0934 0 0.0254
7:53 am 07:53 Cloudy 39 3.9 37 2.8 93 93 NW 6 9 30.14 1021 10 16.0934 0 0
8:53 am 08:53 Cloudy 42 5.6 37 2.8 82 82 WNW 7 11 30.13 1020 10 16.0934 0 0
9:53 am 09:53 Mostly Sunny 45 7.2 38 3.3 77 77 W 10 17 30.11 1020 10 16.0934 0 0
10:53 am 10:53 Sunny 53 11.7 39 3.9 59 59 WNW 13 20 30.09 1019 10 16.0934 0 0
11:53 am 11:53 Sunny 64 17.8 39 3.9 40 40 NW 21 33 30.04 1017 10 16.0934 0 0
12:53 pm 12:53 Mostly Sunny 67 19.4 38 3.3 35 35 WNW 17 28 30 1016 10 16.0934 0 0
1:53 pm 13:53 Mostly Sunny 70 21.1 35 1.7 28 28 WNW 26 43 29.96 1015 10 16.0934 0 0
2:53 pm 14:53 Mostly Sunny 71 21.7 33 0.6 25 25 NW 28 44 29.93 1014 10 16.0934 0 0
3:53 pm 15:53 Sunny 73 22.8 32 0 22 22 NNW 26 43 29.91 1013 10 16.0934 0 0
4:53 pm 16:53 Sunny 72 22.2 32 0 23 23 NNW 21 33 29.91 1013 10 16.0934 0 0
5:53 pm 17:53 Sunny 67 19.4 32 0 27 27 NNW 13 20 29.93 1013 10 16.0934 0 0
6:53 pm 18:53 Sunny 67 19.4 32 0 27 27 N 14 22 29.93 1013 10 16.0934 0 0
7:53 pm 19:53 Clear 57 13.9 33 0.6 41 41 N 8 13 29.97 1015 10 16.0934 0 0
8:53 pm 20:53 Clear 53 11.7 33 0.6 47 47 Calm 29.99 1016 10 16.0934 0 0
9:53 pm 21:53 Clear 51 10.6 32 0 48 48 W 6 9 29.99 1016 10 16.0934 0 0
10:53 pm 22:53 Clear 45 7.2 32 0 61 61 NW 5 7 30 1016 10 16.0934 0 0
11:53 pm 23:53 Clear 45 7.2 31 -0.6 58 58 NNW 9 15 29.96 1015 10 16.0934 0 0

Powered by AerisWeather